TIANMU-1 19

Last updated on Thu Oct 30 2025 00:02:23 GMT+0000 (Coordinated Universal Time)

1 58660U 23208A 25302.51956716 .00012185 00000+0 46642-3 0 9993 2 58660 97.4370 53.6892 0006324 61.5070 298.6805 15.26687040102071
UTC large
Height (km)
Speed (km/s)
/
Latitude / Longitude
Inclination (degrees)
Orbital Period (minutes)
Azimuth
Elevation
Range (km)
Doppler Factor

Next 0 passes for location: London (51.5072 / 0.1276)

Sorry there are no passes over London.